Regional Weather Roundup
Issued by NWS Little Rock, AR

Home | Current Version | Previous Version | Graphics & Text | Print | Product List | Glossary On
Versions: 1 2 3 4 5 6 7 8 9 10 11 12 13 14 15 16 17 18 19 20 21 22 23 24 25 26 27 28 29 30 31 32 33 34 35 36 37 38 39 40 41 42 43 44 45 46 47 48 49 50
385
ASUS44 KLZK 220505
RWRLZK

WEATHER ROUNDUP FOR ARKANSAS
NATIONAL WEATHER SERVICE LITTLE ROCK AR
1100 PM CST SAT JAN 21 2017

NOTE: "FAIR" INDICATES FEW OR NO CLOUDS BELOW 12,000 FEET WITH NO
SIGNIFICANT WEATHER AND/OR OBSTRUCTIONS TO VISIBILITY.

ARZ001-003-010-029-220600-
NORTHWEST ARKANSAS

CITY           SKY/WX    TMP DP  RH WIND       PRES   REMARKS
FAYETTEVILLE   HVY RAIN  50  50 100 CALM      29.45R FOG
FORT SMITH     CLOUDY    58  55  90 E8        29.41F
HARRISON       CLOUDY    51  49  92 SE3       29.44F
BENTONVILLE    CLOUDY   N/A N/A N/A SE7       29.44S
ROGERS         TSTM      52  49  89 SE7       29.45R
SILOAM SPGS    MOCLDY    52  48  87 E8        29.43S
HIGHFILL       CLOUDY    52  50  93 CALM      29.44R
$$

ARZ004-005-016-220600-
NORTH CENTRAL ARKANSAS

CITY           SKY/WX    TMP DP  RH WIND       PRES   REMARKS
BATESVILLE     CLOUDY    59  54  82 N6        29.44F
FLIPPIN        MOCLDY    57  48  72 N5        29.41F
MTN HOME       MOCLDY    57  53  86 E7        29.43F
$$

ARZ040-041-220600-
WEST CENTRAL ARKANSAS

CITY           SKY/WX    TMP DP  RH WIND       PRES   REMARKS
MENA           CLOUDY    55  55 100 CALM      29.43S
$$

ARZ009-017-025-026-028-220600-
NORTHEAST ARKANSAS

CITY           SKY/WX    TMP DP  RH WIND       PRES   REMARKS
CORNING        FAIR      55  55 100 NE7       29.49F
JONESBORO      CLOUDY    59  52  77 NE14      29.42F
NEWPORT        CLOUDY    57  55  93 MISG      29.44F
WALNUT RIDGE   CLOUDY    55  52  88 NE13      29.45F
BLYTHEVILLE    PTCLDY    56  51  84 E8        29.47F
$$

ARZ022-023-033-042-044-220600-
CENTRAL ARKANSAS

CITY           SKY/WX    TMP DP  RH WIND       PRES   REMARKS
LITTLE ROCK    TSTM      56  56 100 SW7       29.46R
N LITTLE ROCK    N/A     58  55  91 SW3       29.45F
JACKSONVILLE   TSTM      59  59 100 S5        29.44S FOG
SEARCY         LGT RAIN  58  57  97 NE6       29.46S
HOT SPRINGS    LGT RAIN  58  58 100 CALM      29.44F
RUSSELLVILLE   LGT RAIN  57  54  89 VRB3      29.44S
CLINTON        MOCLDY    57  57 100 CALM      29.44S
$$

ARZ036-220600-
EAST ARKANSAS

CITY           SKY/WX    TMP DP  RH WIND       PRES   REMARKS
WEST MEMPHIS   CLOUDY    61  55  81 SE12      29.44F
$$

ARZ050-053-066-070-073-220600-
SOUTHWEST ARKANSAS

CITY           SKY/WX    TMP DP  RH WIND       PRES   REMARKS
ARKADELPHIA    FAIR      57  55  93 CALM      29.45S
CAMDEN         PTCLDY    55  52  88 CALM      29.45R
TEXARKANA      MOCLDY    57  57 100 S6        29.44R
EL DORADO        N/A    N/A N/A N/A MISG      29.45R
DE QUEEN       CLEAR     52  52 100 CALM      29.41S FOG
$$

ARZ056-057-069-220600-
SOUTHEAST ARKANSAS

CITY           SKY/WX    TMP DP  RH WIND       PRES   REMARKS
PINE BLUFF     HVY RAIN  57  55  93 NE14      29.40F FOG
STUTTGART      CLOUDY    61  54  77 SW18      29.47R THUNDER
MONTICELLO     CLOUDY    56  54  93 S5        29.44F

$$






USA.gov is the U.S. government's official web portal to all federal, state and local government web resources and services.